Flag for Canada Weather past 2 weeks in Pond Inlet, Nunavut Territory, Canada

Now
-29 °F

Clear.


Feels Like: -48 °F
Forecast: -30 / -27 °F
Wind: 7 mph from South

Location: Pond Inlet

Current Time: Jan 30, 2015 at 7:44:28 AM

Latest Report: Jan 30, 2015 at 7:00 AM


Visibility: 9 mi

Pressure: 29.98 "Hg

Humidity: 67%

Dew point: -36 °F

Location of Pond InletLocation

Historic Weather in Pond Inlet — Graph

°F

Pond Inlet temperature yesterday

Maximum temperature yesterday: -31 °F (at 8:00 PM)
Minimum temperature yesterday: -38 °F (at 1:00 AM)
Average temperature yesterday: -35 °F

Past Weeks' High & Low Weather Summary

 TemperatureHumidityPressure
High-20 °F (Jan 19, 7:56 AM)75% (Jan 15, 9:00 AM)30.11 "Hg (Jan 15, 9:00 AM)
Low-45 °F (Jan 26, 5:00 PM)57% (Jan 24, 8:02 AM)29.15 "Hg (Jan 19, 12:57 AM)
Average-34 °F65%29.77 "Hg
* Reported Jan 15 6:00 AM — Jan 30 6:00 AM, Pond Inlet, Weather by CustomWeather, © 2014

Note: Actual official high and low records may vary slightly from our data, if they occured in-between our weather recording intervals... More about our weather records

Advertising

Pond Inlet weather history for previous 24 hours

 ConditionsComfort  
Time TempWeatherWind HumidityBarometerVisibility
6:00 AM
Jan 30
-29 °FClear.8 mph67%29.98 "Hg9 mi
5:00 AM-29 °FPassing clouds.7 mph67%29.98 "Hg9 mi
4:00 AM-31 °FClear.8 mph67%29.96 "Hg9 mi
3:00 AM-31 °FClear.8 mph67%29.96 "Hg9 mi
2:00 AM-33 °FClear.8 mph66%29.96 "Hg9 mi
1:00 AM-33 °FClear.7 mph66%29.97 "Hg9 mi
12:00 AM-31 °FPassing clouds.6 mph67%29.97 "Hg9 mi
11:00 PM
Jan 29
-33 °FMostly cloudy.8 mph66%29.96 "Hg9 mi
10:00 PM-31 °FOvercast.8 mph67%29.97 "Hg9 mi
9:00 PM-31 °FPassing clouds.12 mph67%29.98 "Hg9 mi
8:00 PM-31 °FClear.10 mph67%29.99 "Hg9 mi
6:00 PM-33 °FPassing clouds.9 mph66%29.99 "Hg15 mi
5:00 PM-33 °FPassing clouds.9 mph60%29.99 "Hg15 mi
4:00 PM-35 °FPassing clouds.12 mph66%29.99 "Hg25 mi
3:00 PM-35 °FPassing clouds.9 mph59%30.00 "Hg25 mi
2:00 PM-35 °FPassing clouds.10 mph59%30.01 "Hg25 mi
1:00 PM-35 °FPassing clouds.7 mph66%30.02 "Hg25 mi
12:00 PM-35 °FPassing clouds.8 mph59%30.03 "Hg25 mi
11:00 AM-36 °FPassing clouds.9 mph66%30.04 "Hg25 mi
10:00 AM-36 °FSunny.8 mph66%30.05 "Hg9 mi
9:00 AM-36 °FClear.7 mph66%30.06 "Hg9 mi
8:00 AM-35 °FClear.8 mph66%30.07 "Hg9 mi
7:00 AM-35 °FClear.8 mph59%30.07 "Hg9 mi
Weather by CustomWeather, © 2014

See weather overviewHow to use our weather pages